Showing default

ERS 1, 21574

Orbit data source: Space-Track

ERS 1, 21574 is a payload satellite owned by ESA (ESA) in SSO that was launched on Wed, 17 Jul 1991 UTC via an ARIANE 40 launch vehicle from the French Guiana (FRGUI). Payload-class satellites include a variety of spacecraft equipped with specific instruments for various scientific and technological missions. These include communications satellites like Starlink; space stations such as the ISS; scientific satellites like the Hubble; Earth observation satellites from companies like Planet Labs, Umbra, and HawkEye 360; GPS; miniature CubeSats for education and research; and military/defense satellites.

Loading next visibility...
Identifier
21574, 1991-050A
Orbit
SSO
Country
Flag of ESAESA
Related business
Manufacturer
DASA-F
Mission
Non-operational Civil Sci/Misc
Bus & Motor
ESA ERS, ERS AOCS
Mass
2,384 kg wet, 2,080 kg dry
Launch date (UTC)
1991-07-17 (35 years ago)
Launch vehicle
ARIANE 40
Launch site
French Guiana (FRGUI)
Object type
Payload
Rocket body
Debris
Shape & HBR
Box + 1 Pan, 5.9 m
Radar Cross Section
15.593 m², Large (>1 m²)

Expand to show TLE details & history
Last TLE update: 3 days ago

TLE from 3 days ago
0 ERS 1
1 21574U 91050A   26171.01462127  .00000124  00000-0  54570-4 0  9996
2 21574  98.7796 191.7818 0030737 258.2342 101.5397 14.39518368830452
Epoch: 2026-06-20T00:21Z
TLE epoch observation values (Epoch: 2026-06-20T00:21:03.277Z)
Latitude
0.00004°
Longitude
-81.71718°
Altitude
767.484 km
Speed
7.468 km/s
True Right ascension
12h 47m 07s
True Declination
0° 00' 00"
Sunlit
Object was in daylight at epoch
Visualization orbit readout
Latitude
Unknown
Longitude
Unknown
Altitude
Unknown
Speed
Unknown
Apparent Right ascension
Unknown
Apparent Declination
Unknown
Sunlit
N/A
Visualization observer readout
Local Sidereal Time
00:28:32
Azimuth
Unknown
Elevation
Unknown
Doppler factor
Unknown
Orbital elements
Apogee altitude
779.158 km
Perigee altitude
735.294 km
Semi-major axis
7,135.363 km
Eccentricity
0.00307
Inclination
98.7796°
RAAN
191.7818°
Arg. of periapsis
258.2342°
True anomaly
101.88453°
Mean anomaly
101.5397°
Eccentric anomaly
101.71214°
Mean motion
3.60097 °/min
Orbital period
99.97 mins
BSTAR
0.00005457
Loading maneuver chart data...
Computing Atmospheric mass density...
Loading historical data...
Loading historical data...
Loading historical data...
Loading historical data...
Loading historical data...
Loading historical data...
Loading historical data...

Documentation

Showing up to 5 results
|